TimeCDT,TemperatureF,Dew PointF,Humidity,Sea Level PressureIn,VisibilityMPH,Wind Direction,Wind SpeedMPH,Gust SpeedMPH,PrecipitationIn,Events,Conditions,WindDirDegrees,DateUTC
12:35 AM,68.0,66.2,94,30.23,10.0,West,11.5,-,N/A,,Unknown,280,2013-07-17 05:35:00
12:55 AM,68.0,66.2,94,30.23,10.0,WNW,9.2,-,N/A,,Unknown,290,2013-07-17 05:55:00
1:35 AM,66.2,64.4,94,30.22,10.0,West,5.8,-,N/A,,Unknown,280,2013-07-17 06:35:00
1:55 AM,66.2,64.4,94,30.22,10.0,WNW,6.9,-,N/A,,Unknown,290,2013-07-17 06:55:00
2:15 AM,66.2,64.4,94,30.22,10.0,NW,4.6,-,N/A,,Unknown,320,2013-07-17 07:15:00
2:35 AM,64.4,64.4,100,30.22,10.0,Calm,Calm,-,N/A,,Unknown,0,2013-07-17 07:35:00
2:55 AM,64.4,62.6,94,30.22,10.0,SW,3.5,-,N/A,,Unknown,220,2013-07-17 07:55:00
3:15 AM,59.0,57.2,94,30.22,10.0,SSW,3.5,-,N/A,,Unknown,210,2013-07-17 08:15:00
3:35 AM,59.0,59.0,100,30.22,10.0,SSW,4.6,-,N/A,,Unknown,200,2013-07-17 08:35:00
3:55 AM,59.0,57.2,94,30.21,10.0,South,3.5,-,N/A,,Unknown,190,2013-07-17 08:55:00
4:15 AM,59.0,57.2,94,30.21,10.0,SSE,3.5,-,N/A,,Unknown,160,2013-07-17 09:15:00
4:35 AM,59.0,59.0,100,30.21,10.0,Calm,Calm,-,N/A,,Unknown,0,2013-07-17 09:35:00
4:55 AM,59.0,59.0,100,30.20,8.0,Calm,Calm,-,N/A,,Unknown,0,2013-07-17 09:55:00
5:15 AM,60.8,60.8,100,30.21,8.0,Calm,Calm,-,N/A,,Unknown,0,2013-07-17 10:15:00
5:35 AM,59.0,59.0,100,30.21,10.0,SSE,4.6,-,N/A,,Unknown,150,2013-07-17 10:35:00
5:55 AM,60.8,59.0,94,30.22,9.0,SE,4.6,-,N/A,,Unknown,130,2013-07-17 10:55:00
6:15 AM,59.0,59.0,100,30.22,10.0,SE,3.5,-,N/A,,Unknown,140,2013-07-17 11:15:00
6:35 AM,62.6,59.0,88,30.23,10.0,South,4.6,-,N/A,,Unknown,190,2013-07-17 11:35:00
6:55 AM,64.4,59.0,83,30.23,10.0,Calm,Calm,-,N/A,,Unknown,0,2013-07-17 11:55:00
7:15 AM,66.2,60.8,83,30.23,10.0,Calm,Calm,-,N/A,,Unknown,0,2013-07-17 12:15:00
7:35 AM,68.0,62.6,83,30.23,10.0,Calm,Calm,-,N/A,,Unknown,0,2013-07-17 12:35:00
7:55 AM,69.8,60.8,73,30.23,10.0,Calm,Calm,-,N/A,,Unknown,0,2013-07-17 12:55:00
8:15 AM,71.6,62.6,73,30.24,10.0,Calm,Calm,-,N/A,,Unknown,0,2013-07-17 13:15:00
8:35 AM,71.6,59.0,64,30.24,10.0,Calm,Calm,-,N/A,,Unknown,0,2013-07-17 13:35:00
8:55 AM,73.4,62.6,69,30.24,10.0,Calm,Calm,-,N/A,,Unknown,0,2013-07-17 13:55:00
9:15 AM,73.4,64.4,73,30.24,10.0,NE,4.6,-,N/A,,Unknown,40,2013-07-17 14:15:00
9:35 AM,73.4,66.2,78,30.23,10.0,NE,4.6,-,N/A,,Unknown,50,2013-07-17 14:35:00
9:55 AM,73.4,64.4,73,30.23,10.0,ENE,6.9,-,N/A,,Unknown,60,2013-07-17 14:55:00
10:15 AM,75.2,66.2,73,30.23,10.0,ENE,9.2,-,N/A,,Unknown,60,2013-07-17 15:15:00
10:35 AM,75.2,66.2,73,30.23,10.0,NE,5.8,-,N/A,,Unknown,50,2013-07-17 15:35:00
10:55 AM,77.0,62.6,61,30.22,10.0,NE,8.1,-,N/A,,Unknown,50,2013-07-17 15:55:00
11:15 AM,77.0,64.4,65,30.22,10.0,East,8.1,-,N/A,,Unknown,80,2013-07-17 16:15:00
11:35 AM,77.0,64.4,65,30.22,10.0,East,6.9,-,N/A,,Unknown,90,2013-07-17 16:35:00
11:55 AM,78.8,64.4,61,30.22,10.0,ENE,12.7,-,N/A,,Unknown,70,2013-07-17 16:55:00
12:15 PM,80.6,64.4,58,30.21,10.0,East,12.7,16.1,N/A,,Unknown,80,2013-07-17 17:15:00
12:35 PM,80.6,64.4,58,30.20,10.0,East,12.7,18.4,N/A,,Unknown,100,2013-07-17 17:35:00
12:55 PM,82.4,64.4,54,30.19,10.0,East,16.1,20.7,N/A,,Unknown,90,2013-07-17 17:55:00
1:15 PM,82.4,60.8,48,30.18,10.0,East,12.7,21.9,N/A,,Unknown,80,2013-07-17 18:15:00
1:35 PM,82.4,59.0,45,30.17,10.0,East,16.1,23.0,N/A,,Unknown,90,2013-07-17 18:35:00
1:55 PM,84.2,59.0,42,30.17,10.0,East,13.8,20.7,N/A,,Unknown,80,2013-07-17 18:55:00
2:15 PM,84.2,59.0,42,30.17,10.0,East,10.4,16.1,N/A,,Unknown,80,2013-07-17 19:15:00
2:35 PM,84.2,59.0,42,30.16,10.0,East,11.5,17.3,N/A,,Unknown,90,2013-07-17 19:35:00
2:55 PM,84.2,59.0,42,30.15,10.0,ENE,13.8,-,N/A,,Unknown,60,2013-07-17 19:55:00
3:15 PM,84.2,60.8,45,30.15,10.0,ENE,12.7,17.3,N/A,,Unknown,60,2013-07-17 20:15:00
3:35 PM,86.0,62.6,45,30.14,10.0,NE,6.9,-,N/A,,Unknown,50,2013-07-17 20:35:00
3:55 PM,86.0,62.6,45,30.14,10.0,ENE,9.2,-,N/A,,Unknown,60,2013-07-17 20:55:00
4:15 PM,86.0,62.6,45,30.14,10.0,ENE,4.6,-,N/A,,Unknown,70,2013-07-17 21:15:00
4:35 PM,86.0,60.8,43,30.13,10.0,NE,8.1,-,N/A,,Unknown,40,2013-07-17 21:35:00
4:55 PM,86.0,60.8,43,30.12,10.0,East,3.5,-,N/A,,Unknown,100,2013-07-17 21:55:00
5:15 PM,86.0,60.8,43,30.12,10.0,NNE,5.8,-,N/A,,Unknown,30,2013-07-17 22:15:00
5:35 PM,86.0,62.6,45,30.12,10.0,NNE,5.8,-,N/A,,Unknown,20,2013-07-17 22:35:00
5:55 PM,86.0,60.8,43,30.11,10.0,NE,3.5,-,N/A,,Unknown,40,2013-07-17 22:55:00
6:15 PM,86.0,60.8,43,30.11,10.0,NNW,6.9,-,N/A,Rain,Light Rain,340,2013-07-17 23:15:00
6:35 PM,86.0,60.8,43,30.10,10.0,North,6.9,-,N/A,,Unknown,360,2013-07-17 23:35:00
6:55 PM,84.2,60.8,45,30.10,10.0,North,4.6,-,N/A,,Unknown,360,2013-07-17 23:55:00
7:15 PM,84.2,62.6,48,30.10,10.0,NNW,5.8,-,N/A,,Unknown,340,2013-07-18 00:15:00
7:35 PM,84.2,62.6,48,30.10,10.0,NW,5.8,-,N/A,,Unknown,320,2013-07-18 00:35:00
7:55 PM,84.2,62.6,48,30.09,10.0,WNW,3.5,-,N/A,,Unknown,300,2013-07-18 00:55:00
8:15 PM,82.4,60.8,48,30.09,10.0,West,3.5,-,N/A,,Unknown,280,2013-07-18 01:15:00
8:35 PM,82.4,62.6,51,30.09,10.0,SSW,4.6,-,N/A,,Unknown,210,2013-07-18 01:35:00
8:55 PM,75.2,62.6,65,30.09,9.0,SSW,8.1,-,N/A,,Unknown,210,2013-07-18 01:55:00
9:15 PM,73.4,62.6,69,30.09,10.0,SSW,11.5,-,N/A,,Unknown,200,2013-07-18 02:15:00
9:55 PM,73.4,62.6,69,30.10,10.0,SSW,11.5,-,N/A,,Unknown,200,2013-07-18 02:55:00
10:15 PM,73.4,60.8,65,30.10,10.0,South,10.4,-,N/A,,Unknown,190,2013-07-18 03:15:00
10:35 PM,71.6,60.8,69,30.10,10.0,SSW,6.9,-,N/A,,Unknown,200,2013-07-18 03:35:00
10:55 PM,71.6,59.0,64,30.10,10.0,South,8.1,-,N/A,,Unknown,170,2013-07-18 03:55:00
11:15 PM,69.8,59.0,68,30.10,10.0,South,3.5,-,N/A,,Unknown,190,2013-07-18 04:15:00
11:35 PM,68.0,59.0,73,30.10,10.0,Calm,Calm,-,N/A,,Unknown,0,2013-07-18 04:35:00
11:55 PM,69.8,59.0,68,30.09,10.0,SSW,8.1,-,N/A,,Unknown,200,2013-07-18 04:55:00